Location: Dumpton Point
(51.3500°N, 1.4433°E)
Time: 15:03:07
(UTC+00:00)

A-11 Canister half - All Passes

Search period start: 23 April 2021 00:00
Search period end: 03 May 2021 00:00
Orbit: 1515 x 1685 km, 47.2° (Epoch: 23 April)

Date Brightness Start Highest point End Pass type
(mag) Time Alt. Az. Time Alt. Az. Time Alt. Az.
23 Apr - 01:34:11 10° W 01:43:18 48° SSW 01:52:42 10° SE visible
23 Apr - 03:40:06 10° W 03:46:29 20° SW 03:52:59 10° S visible
23 Apr - 19:00:34 10° SSW 19:08:10 29° SE 19:15:56 10° E daylight
23 Apr - 21:02:34 10° SW 21:11:42 59° SSE 21:21:10 10° E visible
23 Apr - 23:06:41 10° W 23:16:08 70° S 23:25:56 10° ESE visible
24 Apr - 01:11:17 10° W 01:20:25 49° SSW 01:29:51 10° SE visible
24 Apr - 03:17:01 10° W 03:23:40 21° SW 03:30:27 10° S visible
24 Apr - 18:37:56 10° S 18:45:21 28° SE 18:52:56 10° E daylight
24 Apr - 20:39:45 10° SW 20:48:49 58° SSE 20:58:13 10° E visible
24 Apr - 22:43:49 10° W 22:53:13 70° S 23:03:00 10° ESE visible
25 Apr - 00:48:23 10° W 00:57:33 51° SSW 01:07:00 10° SE visible
25 Apr - 02:53:57 10° W 03:00:51 22° SW 03:07:54 10° S visible
25 Apr - 18:15:20 10° S 18:22:33 26° SE 18:29:54 10° E daylight
25 Apr - 20:16:55 10° SW 20:25:57 56° SSE 20:35:16 10° E visible
25 Apr - 22:20:56 10° W 22:30:18 70° S 22:40:04 10° E visible
26 Apr - 00:25:29 10° W 00:34:40 52° SSW 00:44:08 10° SE visible
26 Apr - 02:30:55 10° W 02:38:02 24° SW 02:45:19 10° S visible
26 Apr - 17:52:45 10° S 17:59:45 25° SE 18:06:53 10° E daylight
26 Apr - 19:54:07 10° SW 20:03:04 54° SSE 20:12:20 10° E visible
26 Apr - 21:58:03 10° W 22:07:24 70° S 22:17:07 10° E visible
27 Apr - 00:02:35 10° W 00:11:46 54° SSW 00:21:17 10° SE visible
27 Apr - 02:07:54 10° W 02:15:13 25° SW 02:22:42 10° S visible
27 Apr - 17:30:11 10° S 17:36:58 23° SE 17:43:50 10° E daylight
27 Apr - 19:31:19 10° SW 19:40:12 53° SSE 19:49:23 10° E visible
27 Apr - 21:35:10 10° W 21:44:30 70° S 21:54:10 10° E visible
27 Apr - 23:39:41 10° W 23:48:53 55° SSW 23:58:24 10° SE visible
28 Apr - 01:44:54 10° W 01:52:24 26° SW 02:00:04 10° S visible
28 Apr - 17:07:39 10° S 17:14:10 22° SE 17:20:47 10° E daylight
28 Apr - 19:08:31 10° SW 19:17:21 51° SSE 19:26:27 10° E daylight
28 Apr - 21:12:18 10° WSW 21:21:36 70° S 21:31:14 10° E visible
28 Apr - 23:16:47 10° W 23:26:00 57° SSW 23:35:32 10° SE visible
29 Apr - 01:21:54 10° W 01:29:34 28° SW 01:37:25 10° S visible
29 Apr - 16:45:09 10° S 16:51:23 21° SE 16:57:42 10° E daylight
29 Apr - 18:45:43 10° SW 18:54:29 49° SSE 19:03:30 10° E daylight
29 Apr - 20:49:25 10° WSW 20:58:41 70° S 21:08:18 10° E visible
29 Apr - 22:53:54 10° W 23:03:07 58° SSW 23:12:39 10° SE visible
30 Apr - 00:58:56 10° W 01:06:44 29° SW 01:14:44 10° SSE visible
30 Apr - 16:22:41 10° S 16:28:36 19° SE 16:34:35 10° E daylight
30 Apr - 18:22:56 10° SW 18:31:38 48° SSE 18:40:34 10° E daylight
30 Apr - 20:26:32 10° WSW 20:35:48 70° S 20:45:22 10° E visible
30 Apr - 22:31:01 10° W 22:40:13 59° SSW 22:49:45 10° ESE visible
01 May - 00:35:58 10° W 00:43:54 30° SW 00:52:03 10° SSE visible
01 May - 16:00:15 10° SSE 16:05:50 18° SE 16:11:27 10° E daylight
01 May - 18:00:10 10° SW 18:08:47 46° SSE 18:17:37 10° E daylight
01 May - 20:03:41 10° WSW 20:12:54 69° S 20:22:26 10° E visible
01 May - 22:08:07 10° W 22:17:20 61° SSW 22:26:52 10° ESE visible
02 May - 00:13:01 10° W 00:21:04 32° SW 00:29:21 10° SSE visible
02 May - 15:37:52 10° SSE 15:43:04 17° SE 15:48:17 10° E daylight
02 May - 17:37:23 10° SW 17:45:57 44° SSE 17:54:41 10° E daylight
02 May - 19:40:48 10° WSW 19:50:00 69° S 19:59:30 10° E visible
02 May - 21:45:14 10° W 21:54:27 62° SSW 22:03:58 10° ESE visible
